Wind_Speed
13 12 12 12 14 16 17 17 17 16 15 15 15 15 15 15 16 16 17 18 18 19 19 19 18 18 18 18 18 18 18 18 19 19 20 20 21 21 22 22 21 21 20 20 20 20 21 22 23 23 24 23 23 22 21 21 21 22 23 24 25 27 28 29 27 27 28 28 28
16 17 17 17 19 19 18 17 16 15 15 15 15 15 16 16 17 18 19 19 19 19 19 19 18 18 18 19 19 19 19 20 21 21 22 22 23 23 23 23 22 22 22 22 22 22 22 22 23 23 24 24 24 23 22 21 20 20 22 23 25 26 27 28 29 28 26 24 24
18 19 19 20 19 18 17 16 15 15 15 15 15 16 16 17 17 18 19 19 19 19 19 19 19 19 20 20 20 21 22 22 23 23 23 24 24 23 23 22 22 23 23 23 22 22 21 21 22 22 24 24 24 24 23 23 21 20 20 22 24 25 26 26 25 24 23 22 21
19 18 18 17 16 15 14 14 14 14 15 15 16 16 16 17 18 18 19 19 19 20 20 20 21 21 22 22 23 24 24 24 24 24 24 24 23 22 21 21 21 21 21 21 20 20 21 21 21 22 23 24 25 25 25 25 23 22 21 22 24 25 25 25 25 23 21 19 18
18 16 15 14 13 12 12 13 14 14 15 15 15 16 17 17 18 19 20 20 20 21 21 22 22 23 23 24 24 25 25 25 25 24 24 23 22 21 21 21 20 20 20 19 19 20 21 23 23 23 23 24 24 24 25 26 26 24 23 23 23 23 22 22 21 21 19 18 17
14 13 12 11 11 12 13 14 14 15 15 16 16 17 17 18 18 19 20 21 21 22 22 22 23 23 23 23 24 24 24 25 24 24 23 22 22 21 21 20 20 20 20 20 20 22 23 25 25 25 24 23 23 23 24 25 25 24 24 24 24 22 20 19 19 18 18 17 16
12 12 12 12 13 14 14 15 15 16 16 16 17 17 18 18 19 20 21 21 22 22 22 22 22 22 22 22 22 23 23 23 23 22 21 21 20 20 20 20 20 20 20 20 21 22 23 24 25 25 25 24 23 23 23 24 25 26 27 28 28 26 22 19 18 18 18 18 18
13 13 14 15 15 16 16 16 17 17 18 18 18 18 19 19 20 21 21 22 22 22 22 22 21 21 21 21 22 22 22 21 20 19 18 17 17 17 17 17 17 17 18 18 18 19 19 20 22 23 23 24 24 24 24 25 26 28 30 32 33 31 28 23 20 19 19 20 20
15 15 16 16 16 17 18 18 19 19 20 20 20 20 20 21 21 22 23 23 23 22 22 21 20 20 20 20 20 19 19 17 16 14 14 14 14 14 14 15 15 14 14 14 14 15 16 17 18 20 21 22 24 25 26 27 28 30 32 34 34 34 32 29 25 21 20 20 20
17 17 17 18 18 19 20 20 21 22 22 23 23 22 22 23 23 23 23 23 22 21 20 20 19 19 18 18 17 16 15 14 13 13 13 14 14 14 14 14 14 13 12 13 13 15 16 17 18 19 21 23 26 28 30 31 31 32 33 34 34 33 31 29 27 24 20 19 18
18 19 20 21 21 22 23 24 24 25 25 24 24 24 24 24 23 23 22 21 20 20 19 18 18 17 17 16 15 15 14 14 14 14 15 16 17 16 16 15 15 15 15 16 18 20 21 22 23 24 26 28 30 32 33 33 33 33 33 34 34 32 28 24 21 20 19 18 17
21 22 23 24 25 25 26 26 26 26 25 24 24 23 23 23 22 21 20 19 19 18 18 17 17 16 16 16 15 16 16 16 16 17 17 18 18 18 19 19 19 20 22 23 25 27 28 28 29 30 31 32 33 33 32 32 31 31 31 32 32 30 26 21 18 17 16 16 14
23 24 25 26 26 26 26 25 25 24 23 22 21 21 21 21 20 19 18 18 17 17 17 17 17 16 16 17 17 18 19 19 20 19 19 20 20 21 22 23 24 26 27 29 30 31 32 32 31 31 31 31 30 30 29 28 28 29 29 29 29 28 26 24 23 21 19 16 14
24 25 25 25 24 24 23 22 22 21 20 19 19 19 20 19 18 17 16 16 16 16 17 18 18 18 18 18 19 20 21 22 22 23 23 22 22 23 25 27 28 29 30 30 30 30 30 29 29 28 28 27 27 26 25 26 26 27 27 26 26 25 24 24 25 24 23 21 19
24 23 23 23 22 21 21 20 19 18 17 17 17 18 18 17 16 15 15 15 16 17 18 19 19 20 20 21 22 22 23 23 24 24 24 24 24 25 26 27 28 28 28 28 28 28 27 26 26 25 25 24 23 22 23 23 24 25 25 25 24 24 23 23 23 23 23 23 22
21 21 21 21 20 20 20 19 19 18 17 16 16 16 16 15 14 13 13 14 16 18 20 20 21 22 23 23 23 24 24 24 23 23 23 24 24 25 26 26 26 26 26 26 25 24 23 23 22 22 22 21 20 20 21 22 23 24 24 25 25 25 25 25 26 26 26 27 26
21 21 21 21 20 20 19 19 19 18 17 17 16 16 15 14 13 12 12 14 17 19 21 21 22 24 25 25 24 24 23 23 23 23 23 23 24 24 24 24 23 23 22 22 21 20 19 19 19 19 19 19 19 19 19 20 21 22 22 23 24 25 25 26 27 28 29 29 30
23 23 23 22 21 20 19 19 19 19 18 17 16 15 14 14 13 13 13 15 17 20 22 23 25 26 26 25 24 24 23 23 22 22 22 22 22 22 22 21 21 20 20 19 19 18 18 17 18 18 18 18 18 18 18 19 19 19 20 20 21 22 22 23 24 24 25 26 27
25 25 25 24 22 21 20 19 19 19 18 17 16 15 14 13 13 14 14 15 18 21 23 25 26 26 25 24 23 23 22 22 22 21 21 21 21 20 20 20 20 20 19 19 19 19 18 18 18 18 18 19 19 20 20 20 20 19 19 19 19 20 20 20 20 20 21 21 22
25 25 25 25 24 22 21 20 20 19 18 17 15 14 13 12 12 14 16 18 21 23 24 25 25 25 23 22 22 21 21 21 21 21 21 21 20 20 20 20 20 20 20 20 19 19 19 19 19 19 19 20 21 22 23 22 22 21 21 21 20 20 19 18 18 18 19 20 20
25 25 25 25 25 24 23 22 20 19 18 16 14 13 12 11 11 13 17 20 23 24 25 25 24 22 21 20 20 20 20 20 20 20 20 20 20 20 20 20 20 20 19 19 19 18 18 18 18 19 20 21 23 24 24 24 24 24 23 22 22 21 20 19 18 18 19 20 21
26 25 25 25 25 24 24 23 21 19 17 15 14 12 10 10 11 14 18 21 23 24 24 23 21 19 18 18 19 20 20 20 20 19 19 19 19 19 19 19 19 18 18 18 18 17 17 17 17 19 21 23 24 25 25 26 26 25 25 24 23 22 21 20 19 19 19 19 20
27 26 26 25 25 25 24 23 21 19 17 15 13 11 10 11 13 16 19 22 23 23 22 20 18 17 17 17 18 19 19 19 18 17 17 17 17 17 17 17 17 17 18 18 18 17 17 18 19 21 23 24 25 26 26 26 27 27 26 26 25 24 23 23 22 21 20 20 20
28 27 27 27 26 26 25 24 21 19 17 15 14 11 10 11 14 16 19 20 20 19 18 17 16 16 16 16 16 17 17 17 17 17 17 17 17 17 17 17 17 17 18 18 19 19 20 21 22 23 24 25 26 26 27 27 28 28 28 27 26 26 25 24 24 23 22 21 20
31 31 30 30 29 29 28 26 23 21 18 15 12 11 10 10 11 13 15 15 15 15 14 15 16 16 16 15 15 15 16 16 17 17 17 17 17 17 17 17 17 18 18 19 20 21 22 22 23 24 24 25 25 26 27 28 29 30 29 29 28 27 26 26 25 24 23 22 21
34 34 34 33 33 32 31 29 28 24 19 14 11 11 11 11 10 10 11 12 12 13 13 14 15 15 15 14 14 14 15 16 17 17 18 18 17 17 17 17 17 18 19 20 21 22 23 23 23 23 23 23 24 26 27 29 30 31 31 30 29 28 27 27 26 25 24 22 21
38 38 37 36 35 34 34 32 29 24 17 12 9 9 10 10 11 11 11 11 12 13 14 15 15 15 14 13 13 14 15 16 17 18 18 18 17 17 16 17 17 19 20 21 22 23 23 23 23 22 23 23 24 26 28 30 31 32 32 32 30 29 28 27 26 25 24 23 22
39 38 38 37 37 36 36 34 28 21 14 10 9 9 9 10 12 12 11 10 11 13 14 14 14 14 13 13 13 14 15 17 17 18 18 17 17 16 16 17 18 19 21 22 22 23 23 23 23 23 24 24 26 27 29 31 32 33 33 32 31 30 29 28 27 26 24 23 23
37 37 37 37 36 38 37 33 25 17 12 9 9 8 9 11 12 11 9 10 11 12 13 14 14 14 13 13 14 15 16 17 18 18 18 17 17 17 17 18 19 20 21 22 23 23 24 24 24 25 26 27 28 29 30 32 33 33 33 33 32 31 29 28 27 26 25 24 23
37 37 37 37 37 38 36 28 19 13 10 9 8 8 10 11 10 9 9 10 11 12 13 14 14 14 14 14 15 16 17 18 18 18 18 18 17 18 19 19 19 19 20 22 23 23 24 25 26 26 27 28 29 30 31 32 33 33 33 32 31 30 29 28 26 25 24 24 23
37 38 38 38 37 35 29 19 12 11 10 8 7 9 10 9 8 8 9 10 11 13 14 14 14 14 15 15 16 17 18 18 18 18 18 18 18 19 20 20 20 19 20 22 23 24 25 26 27 27 28 29 30 31 31 32 32 32 32 31 30 29 27 26 24 24 23 23 24
39 39 39 38 36 29 20 12 11 10 8 6 7 8 9 8 8 8 9 11 12 13 14 14 15 15 15 16 17 17 18 18 19 18 18 18 19 20 20 21 20 20 20 22 24 25 26 27 27 28 29 30 30 31 31 31 30 30 30 29 28 26 25 23 23 23 23 23 24
40 41 42 39 32 22 13 10 10 9 9 8 7 7 7 7 8 9 10 12 13 14 14 14 15 15 16 17 18 18 18 19 19 18 19 19 19 20 20 21 21 21 22 23 24 25 26 27 28 29 30 30 31 30 30 29 29 28 28 28 26 24 22 21 22 22 23 23 23
42 44 44 39 28 16 11 10 9 8 8 7 6 6 7 8 9 10 11 12 13 13 14 14 15 16 17 18 18 18 18 18 18 19 19 20 20 20 21 21 21 21 22 23 24 25 26 27 28 30 30 31 30 29 29 28 28 28 28 28 26 24 22 21 21 21 21 21 22
42 45 44 37 22 11 7 7 6 6 4 5 5 6 7 8 9 11 12 12 13 13 14 15 16 17 18 18 18 18 18 18 19 19 20 20 20 21 21 22 22 22 22 23 24 25 26 28 29 30 30 30 29 29 28 28 29 29 29 28 26 24 23 22 21 20 20 20 20
41 43 40 29 15 7 4 4 4 3 4 5 6 7 8 8 9 10 12 12 13 14 15 16 17 18 18 18 18 18 18 19 19 20 20 20 20 21 21 22 23 22 22 22 24 25 27 28 29 30 30 29 29 29 29 29 30 29 29 28 27 26 25 24 22 21 20 20 20
40 38 30 17 7 4 4 4 3 3 4 6 7 8 8 9 10 11 12 13 14 15 16 17 17 18 18 18 19 19 19 20 20 20 20 20 21 21 23 24 24 24 23 23 24 25 26 27 28 28 29 29 29 29 29 30 29 29 28 27 27 27 26 25 24 22 21 20 20
32 23 14 8 6 6 5 4 4 5 7 7 7 8 8 10 11 12 13 14 15 16 17 17 18 18 18 19 20 20 20 20 20 20 20 21 22 23 24 25 25 25 25 25 25 24 24 24 25 27 28 28 29 29 29 29 29 28 27 27 27 27 26 25 24 23 22 21 21
17 11 10 9 7 5 5 6 7 7 7 7 8 9 10 11 11 12 13 14 15 16 17 18 18 19 19 20 20 21 20 20 20 20 21 22 24 25 26 26 25 25 25 25 24 23 23 23 24 26 27 28 28 28 28 28 27 27 26 26 25 25 24 24 24 24 24 24 23
10 11 10 8 7 8 9 9 8 7 7 8 9 10 10 11 12 13 14 15 16 17 18 18 19 19 20 20 21 21 21 21 21 21 22 23 24 25 25 24 24 24 24 24 24 24 24 24 24 26 26 27 27 28 27 26 26 25 25 24 23 23 23 23 25 25 25 26 25
8 8 9 11 13 13 11 9 7 6 7 9 9 10 11 12 13 14 14 15 17 18 19 19 19 20 20 20 21 21 21 21 22 22 23 24 24 24 23 22 23 23 24 24 24 24 24 24 23 24 24 25 26 26 26 24 24 23 22 22 22 22 23 24 25 26 25 25 24
Wind_Direction
277 277 280 284 286 289 292 295 296 295 294 292 291 291 291 290 290 291 292 293 294 294 294 293 292 292 292 292 292 292 291 291 291 291 290 290 290 291 291 290 290 289 289 290 291 292 292 293 292 291 289 286 284 280 278 277 278 281 283 284 283 282 280 278 276 274 274 276 278
277 275 277 281 286 290 292 293 292 291 290 290 290 290 290 291 292 293 294 295 295 295 294 294 293 293 293 293 292 292 292 292 292 292 291 291 290 290 290 290 289 288 288 289 291 293 294 294 293 290 288 285 282 280 278 277 277 280 283 284 282 280 277 275 273 272 272 273 275
285 282 282 283 285 287 287 287 287 287 288 289 289 290 291 293 294 295 296 296 296 296 295 295 294 294 293 292 292 291 291 292 293 293 292 291 290 290 290 289 289 289 290 291 292 294 295 294 292 289 285 283 282 281 281 280 279 280 281 281 279 276 273 270 268 268 269 271 270
292 290 288 286 285 285 285 286 288 289 289 290 291 292 294 296 297 298 298 297 297 296 296 295 295 294 293 292 290 290 291 292 292 292 292 291 291 291 291 290 290 291 293 294 295 294 292 290 288 286 283 282 282 282 282 282 280 278 276 276 275 272 269 265 263 263 265 267 265
295 293 291 289 290 290 291 292 293 293 293 293 295 296 298 299 299 299 299 298 298 297 297 296 296 295 294 292 291 291 291 291 291 291 291 292 292 292 292 291 292 294 295 295 293 289 286 283 282 282 282 283 284 285 285 285 283 280 277 275 274 269 262 257 255 257 259 258 254
300 298 296 297 298 298 297 297 297 296 297 298 300 301 302 302 301 300 300 299 299 299 299 298 298 297 296 295 294 293 292 292 291 291 291 292 292 292 292 292 293 294 294 292 289 286 283 280 280 281 283 285 286 287 288 289 291 291 290 288 283 274 262 251 247 249 250 247 244
307 304 302 302 302 301 301 300 300 301 302 303 304 304 304 304 303 302 301 301 301 301 301 301 300 299 298 297 296 295 295 294 293 292 292 293 292 292 291 292 293 293 292 291 289 287 286 284 283 284 286 288 288 289 290 293 297 300 301 299 295 286 272 256 245 243 245 245 244
309 306 304 303 303 303 303 304 304 305 305 306 306 305 304 304 304 303 303 302 302 302 302 301 300 300 299 299 299 298 298 297 296 295 294 294 294 295 295 295 296 295 294 294 292 292 292 292 291 291 292 292 292 291 292 294 297 299 299 299 297 292 282 268 253 241 238 241 243
309 307 306 305 304 304 305 305 305 305 305 305 304 304 303 303 303 303 303 302 301 300 299 299 298 298 299 300 301 301 302 302 302 300 300 299 300 302 303 300 299 299 300 301 299 297 296 297 298 298 298 297 295 294 293 294 295 296 296 296 296 292 285 274 260 245 235 234 236
309 307 306 305 305 305 305 305 304 304 303 302 301 301 301 301 301 301 301 300 298 297 296 296 297 298 299 301 303 304 305 305 305 304 303 302 302 303 303 299 297 299 302 302 299 296 294 296 298 299 299 297 296 295 294 294 294 294 294 295 295 292 285 276 264 253 245 242 241
306 305 303 303 303 303 303 303 302 302 301 301 300 300 300 300 300 299 299 297 295 294 294 296 297 298 301 304 305 304 303 302 303 303 300 297 297 297 296 295 293 293 294 294 293 293 293 295 295 296 295 294 294 294 294 294 294 294 295 295 294 290 286 280 271 266 264 264 260
304 303 301 301 301 301 301 301 301 301 301 300 300 299 300 300 300 300 298 296 294 293 294 296 298 299 301 304 304 301 298 297 299 298 296 295 294 293 292 290 289 288 289 290 292 293 295 296 296 295 295 294 294 295 296 297 297 296 296 294 291 287 283 280 277 279 283 285 280
303 302 302 302 302 302 302 301 302 301 301 300 299 300 301 302 302 300 298 295 293 293 294 296 297 298 299 300 299 297 294 293 293 294 295 294 293 292 290 289 289 290 291 292 294 296 297 298 298 298 298 298 299 300 300 300 299 297 293 290 285 281 277 274 274 277 283 289 291
303 303 303 303 303 303 303 303 303 302 300 299 299 301 303 304 303 300 296 293 293 293 295 296 297 297 297 297 295 295 295 293 293 293 293 293 293 292 292 292 293 294 296 297 298 299 300 301 301 301 301 301 303 303 303 300 297 293 289 285 280 276 273 271 271 273 276 281 283
304 304 304 304 304 303 303 304 304 303 301 300 301 303 305 305 302 298 295 294 294 295 296 297 298 298 298 297 297 297 297 297 297 297 297 297 297 297 297 298 300 301 302 302 302 303 303 303 303 303 303 303 304 303 300 296 292 289 286 284 281 279 277 276 275 276 279 281 283
305 305 305 304 303 303 303 303 303 303 301 301 302 304 305 304 300 298 298 298 298 298 298 299 301 303 303 303 303 303 304 304 305 305 304 304 303 303 304 305 306 306 306 306 306 306 306 305 305 305 304 304 302 300 296 292 290 289 288 287 287 286 286 285 286 286 288 289 290
305 305 304 303 301 300 300 301 301 301 299 299 300 301 302 301 300 301 302 303 301 300 300 303 305 307 308 309 310 310 310 310 311 310 309 309 308 308 309 309 310 311 311 311 311 311 310 309 308 307 307 307 306 303 300 298 296 295 294 294 294 294 294 294 294 295 295 295 296
304 304 303 301 299 297 296 297 298 298 297 296 296 297 298 299 300 300 300 299 297 297 300 304 307 309 311 312 313 313 314 314 314 314 314 313 313 313 314 315 317 318 319 319 318 317 315 313 312 313 314 315 316 316 314 312 310 308 306 305 305 305 304 304 304 303 303 303 302
302 303 303 301 298 296 294 295 296 296 295 293 293 293 295 296 297 296 294 293 292 295 299 304 309 312 313 314 315 316 317 318 319 319 320 320 320 321 322 324 324 325 325 325 323 322 321 319 318 318 319 322 324 326 326 325 324 321 320 318 317 316 315 314 313 312 311 310 309
299 301 301 301 300 298 296 296 296 296 294 292 291 291 294 294 293 290 287 287 289 294 300 306 311 314 316 317 319 320 323 324 325 326 327 327 328 329 329 329 328 328 327 326 324 322 321 320 319 318 318 320 323 326 328 329 328 326 325 323 322 321 320 318 316 313 311 310 310
298 299 299 300 300 300 299 298 297 296 294 291 290 291 293 290 287 284 284 287 291 297 304 309 314 317 320 321 323 325 328 329 330 330 331 331 331 330 329 329 327 326 324 322 319 316 314 313 311 310 311 314 318 322 325 327 327 326 324 323 321 320 318 316 313 309 306 304 304
299 298 297 298 299 299 299 298 297 294 291 288 288 289 290 284 280 281 286 291 296 301 307 313 317 321 322 323 325 327 329 331 332 332 331 329 327 325 324 322 320 318 316 314 311 308 305 302 301 301 304 308 313 318 321 323 324 324 323 321 320 318 316 313 310 306 301 298 296
302 299 297 297 296 297 297 297 295 291 287 283 282 283 284 281 282 286 291 295 299 305 310 316 320 321 321 320 321 324 327 329 329 327 325 321 318 316 314 313 312 310 309 308 305 302 297 295 294 296 300 305 309 314 317 319 321 321 320 319 318 316 314 312 309 306 302 297 293
308 305 302 300 298 296 296 295 292 287 282 278 276 277 280 284 289 293 296 299 304 309 313 315 316 316 314 313 315 318 321 323 322 321 318 315 313 311 310 309 308 308 307 306 304 300 297 295 296 298 301 304 307 310 313 315 317 317 317 317 315 314 312 310 308 306 304 301 297
313 311 308 305 302 299 296 293 288 283 278 274 271 272 276 283 291 296 299 303 307 309 309 306 307 307 307 307 310 313 316 319 319 317 316 314 311 310 308 308 308 308 308 307 305 303 301 301 301 301 302 304 305 307 309 311 313 314 314 314 313 311 310 309 308 307 305 302 298
313 311 309 307 304 300 296 291 285 279 272 267 266 270 275 281 286 292 298 302 303 302 299 298 299 301 302 304 307 311 315 317 317 316 314 312 310 309 308 308 308 310 310 309 307 306 305 304 303 303 303 304 305 306 308 309 310 311 312 312 311 310 310 309 308 307 305 302 298
311 309 307 305 302 299 295 289 282 274 266 261 262 268 275 280 286 291 295 296 296 297 298 298 299 300 301 302 306 310 313 315 316 315 313 312 310 309 308 308 310 311 312 310 308 307 306 305 305 305 305 306 306 306 306 307 308 309 309 310 310 310 310 309 308 306 304 300 297
310 307 305 303 301 298 294 288 278 267 257 253 256 263 273 284 292 294 293 293 295 298 299 300 299 299 299 301 304 308 312 314 315 314 313 311 309 308 308 309 312 313 312 310 308 307 306 307 307 307 307 307 306 305 305 305 305 306 307 308 308 309 309 308 307 306 303 299 296
310 308 306 304 301 298 293 286 274 260 249 247 249 260 279 292 294 292 291 294 297 299 300 301 300 300 300 301 304 308 311 313 314 313 312 310 308 307 307 308 311 313 311 308 306 306 306 306 306 306 305 304 304 303 303 303 304 305 305 306 307 307 308 308 307 306 304 301 298
311 309 307 304 301 297 292 284 267 248 237 240 250 272 288 292 290 289 292 296 298 300 301 301 301 301 301 302 305 308 310 311 312 312 311 310 309 308 308 309 311 311 309 306 305 304 304 304 304 303 302 301 301 301 302 302 303 303 304 305 305 306 307 308 308 307 305 303 301
312 310 308 305 300 296 290 276 249 229 226 232 263 285 289 286 286 290 294 297 298 300 300 302 302 302 302 304 306 308 309 310 311 311 310 309 309 309 309 309 310 310 307 304 303 303 303 302 301 300 300 300 300 301 301 302 303 303 304 305 306 308 309 310 309 307 305 302 300
314 312 310 306 301 295 285 258 233 223 223 236 274 284 283 284 288 292 295 296 297 299 302 303 304 304 305 307 308 309 310 310 310 310 310 310 309 309 309 308 309 308 305 303 303 302 302 301 300 299 299 299 300 301 302 303 304 305 307 308 310 312 312 311 308 304 302 300 298
315 314 312 308 302 292 268 240 233 245 261 276 282 285 287 292 294 294 294 295 299 303 305 307 307 308 308 309 309 310 310 310 311 311 310 310 310 309 309 309 309 307 305 303 303 303 302 301 300 299 299 299 300 302 304 306 308 310 312 314 315 314 312 308 304 302 300 299 299
315 313 312 310 301 282 252 245 257 276 288 290 289 292 296 297 296 297 299 303 307 309 310 309 309 310 309 309 310 310 311 312 312 312 311 311 310 309 309 309 309 308 307 305 304 303 302 300 299 299 299 300 302 304 307 310 313 315 317 318 317 314 309 305 302 300 299 298 298
314 312 311 307 296 272 250 265 290 303 302 293 292 292 294 295 299 305 311 316 316 314 312 311 311 310 309 309 310 311 312 313 313 312 312 311 310 310 309 309 309 308 308 307 305 303 302 300 299 299 299 301 303 306 309 312 314 316 317 318 316 313 309 305 301 298 295 294 294
312 310 307 303 293 279 294 325 330 315 295 288 286 288 293 303 314 322 324 322 319 316 314 312 311 310 310 310 312 312 313 313 312 312 311 310 310 310 310 310 309 308 306 305 304 303 302 301 300 300 300 302 304 306 309 310 312 313 314 315 315 314 312 309 305 300 296 294 292
311 308 307 306 308 338 359 358 336 304 290 286 288 296 310 325 332 332 327 322 319 316 314 312 311 311 312 313 314 314 313 312 312 311 310 309 309 309 310 310 309 307 305 304 303 303 302 301 300 300 300 301 302 304 305 306 307 309 311 312 314 315 316 316 314 310 305 300 295
312 315 324 350 18 23 10 340 308 294 291 294 304 320 335 341 336 329 324 321 318 316 314 313 313 313 314 315 315 314 314 313 312 310 309 308 308 310 310 310 309 307 306 305 305 304 303 302 299 298 297 298 299 301 302 302 303 305 307 309 312 315 317 318 318 317 313 307 301
328 354 21 30 25 2 330 312 301 296 301 315 332 343 345 339 330 324 320 317 315 314 313 313 314 315 316 316 316 316 315 314 312 310 309 309 310 311 311 311 309 308 308 308 308 307 306 304 300 297 296 296 297 298 299 300 301 302 304 307 310 313 315 316 317 317 315 311 306
14 21 14 358 332 311 302 300 299 306 322 340 348 346 338 328 322 318 315 314 313 313 314 315 316 317 318 318 318 317 316 314 312 311 310 311 312 312 312 311 309 309 309 310 309 309 307 305 301 298 296 296 297 297 298 298 299 300 302 305 307 310 312 314 315 315 314 312 310
21 357 334 317 309 303 298 297 305 328 347 350 344 334 326 320 318 316 314 313 314 315 316 317 318 319 319 319 318 318 317 316 314 314 314 314 314 314 313 311 310 310 311 311 311 310 309 305 301 298 297 297 297 297 298 298 299 300 301 303 304 306 309 311 313 314 313 311 310
Height
1527 1526 1524 1523 1523 1522 1522 1521 1521 1521 1520 1520 1519 1519 1518 1518 1517 1516 1515 1515 1514 1513 1513 1512 1512 1511 1510 1509 1509 1508 1507 1507 1506 1505 1504 1503 1503 1502 1501 1500 1499 1498 1498 1497 1496 1495 1494 1493 1492 1491 1491 1490 1489 1489 1488 1488 1487 1486 1485 1484 1484 1483 1482 1481 1480 1480 1479 1478 1478
1525 1524 1523 1523 1522 1521 1521 1520 1520 1520 1519 1519 1518 1518 1517 1516 1515 1515 1514 1513 1513 1512 1512 1511 1510 1510 1509 1508 1507 1507 1506 1505 1504 1503 1503 1502 1501 1500 1499 1498 1498 1497 1496 1495 1494 1493 1493 1492 1491 1489 1488 1488 1488 1487 1486 1486 1485 1484 1484 1483 1482 1481 1480 1479 1478 1477 1477 1476 1476
1523 1523 1522 1522 1521 1520 1520 1519 1519 1518 1518 1518 1517 1516 1516 1515 1514 1513 1513 1512 1512 1511 1510 1510 1509 1508 1508 1507 1506 1505 1504 1503 1503 1502 1501 1500 1499 1498 1498 1497 1496 1495 1494 1493 1493 1492 1491 1490 1488 1488 1487 1486 1485 1485 1485 1484 1483 1483 1482 1481 1480 1479 1478 1477 1475 1475 1474 1474 1474
1523 1522 1521 1520 1520 1519 1519 1518 1518 1518 1517 1516 1515 1515 1514 1513 1513 1512 1512 1511 1510 1510 1509 1508 1508 1507 1506 1505 1504 1503 1503 1502 1501 1500 1499 1498 1497 1497 1496 1495 1494 1493 1493 1492 1491 1490 1489 1488 1486 1485 1484 1484 1483 1483 1483 1482 1482 1481 1480 1479 1478 1477 1476 1474 1473 1473 1472 1472 1472
1523 1522 1521 1520 1519 1519 1518 1518 1517 1516 1516 1515 1514 1513 1513 1512 1512 1511 1510 1510 1509 1508 1508 1507 1506 1505 1504 1503 1503 1502 1501 1500 1499 1498 1498 1497 1496 1495 1494 1493 1493 1492 1491 1490 1489 1488 1486 1485 1484 1483 1483 1482 1482 1482 1481 1481 1480 1479 1478 1477 1476 1475 1473 1472 1471 1470 1470 1470 1470
1522 1521 1520 1520 1519 1518 1518 1517 1516 1515 1514 1513 1513 1512 1511 1511 1510 1510 1509 1508 1508 1507 1506 1505 1504 1503 1503 1502 1501 1500 1499 1498 1497 1497 1496 1495 1494 1493 1492 1491 1490 1490 1489 1488 1486 1485 1484 1483 1482 1482 1481 1481 1481 1480 1480 1480 1479 1478 1477 1476 1475 1474 1473 1471 1469 1469 1468 1468 1468
1521 1520 1520 1519 1518 1518 1517 1515 1514 1513 1513 1512 1511 1511 1510 1509 1509 1508 1508 1507 1506 1505 1504 1504 1503 1502 1501 1500 1499 1498 1497 1496 1495 1495 1494 1493 1492 1491 1490 1489 1489 1488 1487 1486 1484 1483 1482 1482 1481 1480 1480 1479 1479 1479 1478 1478 1477 1477 1476 1475 1475 1474 1472 1470 1468 1468 1467 1467 1467
1520 1519 1519 1518 1517 1516 1515 1514 1513 1512 1511 1511 1510 1509 1509 1508 1508 1507 1506 1505 1504 1504 1503 1502 1501 1501 1500 1499 1498 1497 1496 1495 1493 1493 1492 1491 1490 1489 1488 1488 1487 1486 1485 1484 1483 1482 1481 1480 1479 1479 1478 1478 1478 1477 1477 1476 1476 1475 1474 1473 1473 1472 1472 1470 1468 1467 1466 1465 1465
1519 1518 1518 1517 1516 1515 1513 1513 1512 1511 1510 1509 1509 1508 1508 1507 1506 1505 1504 1503 1503 1502 1501 1501 1500 1499 1498 1498 1497 1495 1494 1493 1492 1491 1490 1489 1488 1488 1487 1486 1485 1484 1483 1482 1481 1480 1479 1478 1478 1478 1477 1476 1476 1475 1475 1474 1474 1473 1472 1471 1470 1470 1470 1469 1468 1466 1465 1464 1463
1518 1518 1516 1515 1514 1513 1513 1512 1511 1510 1509 1508 1508 1507 1506 1506 1505 1504 1503 1502 1501 1500 1500 1499 1498 1498 1497 1496 1495 1494 1493 1491 1490 1489 1488 1488 1488 1487 1485 1484 1483 1483 1482 1481 1480 1479 1478 1478 1477 1476 1476 1475 1474 1473 1473 1473 1472 1471 1470 1469 1469 1468 1467 1466 1465 1465 1464 1463 1462
1518 1517 1515 1514 1513 1512 1511 1510 1509 1508 1508 1507 1506 1506 1505 1504 1503 1502 1502 1501 1500 1499 1498 1497 1497 1496 1495 1494 1493 1492 1491 1489 1488 1488 1487 1487 1486 1485 1484 1483 1481 1481 1480 1479 1478 1478 1477 1477 1476 1475 1474 1473 1473 1472 1471 1471 1470 1469 1468 1467 1467 1466 1465 1464 1464 1464 1463 1463 1462
1516 1515 1514 1513 1512 1511 1510 1509 1508 1507 1506 1505 1505 1504 1503 1503 1502 1501 1500 1499 1498 1497 1496 1496 1495 1494 1493 1492 1491 1490 1489 1488 1487 1486 1485 1485 1484 1483 1482 1481 1480 1479 1478 1478 1477 1476 1475 1475 1474 1473 1472 1471 1471 1470 1469 1468 1467 1467 1466 1465 1465 1464 1463 1463 1462 1462 1461 1461 1460
1515 1514 1513 1512 1511 1510 1509 1508 1507 1506 1505 1504 1503 1502 1502 1501 1500 1499 1498 1497 1496 1495 1494 1494 1493 1493 1492 1491 1489 1488 1487 1486 1485 1484 1484 1483 1482 1481 1480 1479 1478 1478 1477 1476 1475 1475 1474 1473 1472 1471 1470 1469 1468 1468 1467 1466 1465 1464 1464 1463 1463 1462 1462 1461 1460 1459 1459 1458 1457
1514 1513 1512 1510 1509 1508 1507 1506 1505 1504 1503 1502 1502 1501 1500 1499 1498 1498 1496 1495 1493 1493 1493 1492 1492 1491 1490 1489 1488 1487 1486 1485 1484 1483 1482 1481 1480 1479 1478 1477 1477 1476 1475 1474 1473 1473 1472 1470 1469 1468 1468 1467 1466 1466 1465 1465 1464 1463 1463 1462 1462 1461 1460 1459 1459 1458 1457 1457 1456
1512 1511 1510 1509 1508 1507 1506 1505 1504 1503 1502 1501 1500 1499 1499 1498 1497 1496 1494 1493 1492 1491 1491 1491 1490 1490 1489 1488 1487 1486 1484 1483 1483 1482 1480 1479 1478 1478 1477 1476 1475 1474 1473 1472 1471 1470 1469 1468 1468 1467 1466 1465 1465 1465 1464 1464 1463 1463 1462 1461 1460 1459 1459 1458 1458 1457 1456 1455 1454
1511 1510 1508 1508 1506 1505 1504 1503 1503 1502 1500 1499 1498 1498 1498 1497 1495 1494 1492 1491 1490 1490 1490 1489 1489 1488 1487 1486 1485 1484 1483 1482 1481 1480 1479 1478 1477 1476 1475 1474 1473 1472 1471 1470 1469 1468 1468 1467 1466 1465 1465 1464 1464 1464 1463 1463 1462 1462 1461 1460 1459 1458 1458 1457 1456 1456 1455 1454 1453
1510 1508 1507 1506 1505 1504 1503 1502 1501 1500 1499 1498 1497 1497 1496 1495 1494 1492 1491 1490 1488 1488 1488 1488 1487 1487 1486 1484 1483 1483 1482 1480 1479 1478 1477 1476 1475 1474 1473 1473 1472 1471 1470 1469 1468 1467 1467 1466 1465 1464 1464 1463 1463 1463 1462 1462 1461 1460 1459 1459 1458 1457 1456 1456 1455 1454 1453 1453 1452
1509 1508 1506 1504 1503 1502 1501 1500 1499 1498 1497 1496 1495 1495 1494 1494 1492 1491 1490 1488 1488 1487 1487 1486 1486 1485 1484 1483 1482 1481 1480 1479 1478 1477 1476 1475 1474 1473 1472 1471 1471 1470 1469 1468 1467 1467 1466 1465 1464 1464 1463 1463 1462 1462 1461 1460 1459 1459 1458 1457 1457 1456 1455 1454 1453 1453 1452 1451 1451
1508 1506 1505 1503 1502 1500 1499 1498 1497 1496 1495 1494 1493 1493 1492 1492 1491 1489 1488 1488 1486 1486 1485 1485 1484 1484 1483 1482 1481 1480 1479 1478 1477 1476 1475 1474 1473 1472 1471 1470 1469 1469 1468 1467 1466 1465 1465 1464 1463 1463 1462 1462 1461 1460 1460 1459 1458 1457 1457 1456 1455 1454 1453 1453 1452 1451 1451 1450 1449
1505 1504 1503 1502 1500 1499 1497 1496 1495 1494 1493 1492 1492 1491 1490 1489 1488 1487 1486 1486 1485 1484 1484 1484 1483 1482 1481 1480 1479 1478 1478 1477 1476 1475 1473 1473 1472 1471 1470 1469 1468 1468 1467 1466 1465 1464 1464 1463 1463 1462 1461 1460 1460 1459 1458 1458 1457 1456 1455 1454 1454 1453 1452 1452 1451 1450 1450 1449 1448
1503 1502 1501 1500 1499 1497 1496 1494 1493 1492 1491 1490 1489 1489 1488 1487 1486 1485 1484 1483 1483 1483 1483 1482 1482 1481 1480 1479 1478 1477 1476 1476 1475 1474 1473 1472 1471 1470 1469 1468 1468 1467 1466 1465 1465 1464 1463 1463 1462 1461 1460 1459 1459 1458 1457 1457 1456 1455 1454 1453 1452 1452 1451 1450 1450 1449 1448 1448 1447
1501 1500 1499 1498 1497 1496 1494 1493 1492 1490 1489 1488 1488 1487 1485 1484 1483 1483 1483 1482 1482 1482 1482 1481 1480 1479 1478 1478 1477 1476 1475 1474 1474 1473 1472 1471 1470 1470 1469 1468 1468 1467 1466 1465 1465 1464 1463 1463 1462 1461 1460 1459 1458 1457 1457 1456 1455 1454 1453 1452 1451 1450 1450 1449 1448 1448 1448 1447 1447
1499 1498 1497 1495 1494 1493 1492 1491 1490 1489 1488 1487 1486 1485 1483 1482 1481 1481 1481 1481 1481 1481 1480 1480 1479 1478 1478 1477 1476 1475 1474 1473 1473 1472 1472 1471 1470 1469 1469 1468 1468 1467 1466 1465 1465 1464 1463 1462 1461 1460 1459 1458 1457 1456 1455 1455 1454 1453 1452 1451 1450 1449 1448 1448 1447 1447 1446 1446 1445
1498 1497 1495 1494 1493 1491 1490 1489 1488 1487 1485 1484 1484 1483 1482 1480 1479 1479 1480 1480 1480 1480 1479 1479 1478 1478 1477 1476 1475 1475 1474 1473 1472 1472 1471 1471 1470 1469 1469 1468 1467 1466 1465 1465 1464 1463 1462 1461 1460 1459 1458 1457 1456 1455 1454 1453 1453 1452 1451 1449 1448 1448 1447 1446 1445 1445 1444 1444 1443
1497 1496 1494 1493 1491 1490 1488 1488 1486 1484 1483 1482 1482 1481 1480 1479 1478 1478 1478 1479 1479 1479 1479 1478 1478 1478 1477 1476 1475 1474 1473 1473 1472 1471 1470 1470 1469 1468 1468 1467 1466 1465 1464 1464 1463 1462 1461 1460 1459 1458 1457 1456 1455 1454 1453 1452 1451 1450 1449 1448 1447 1446 1445 1444 1444 1443 1443 1442 1442
1495 1494 1493 1491 1489 1488 1487 1485 1483 1482 1481 1480 1479 1479 1478 1477 1477 1477 1477 1478 1478 1478 1478 1478 1478 1477 1476 1475 1474 1474 1473 1472 1471 1471 1470 1469 1468 1468 1467 1466 1465 1464 1463 1463 1461 1460 1459 1459 1458 1457 1456 1455 1454 1453 1452 1451 1450 1449 1448 1447 1446 1445 1444 1443 1442 1441 1441 1440 1440
1493 1492 1490 1489 1487 1486 1484 1483 1480 1479 1478 1478 1477 1477 1476 1476 1476 1476 1477 1477 1478 1478 1478 1477 1477 1476 1475 1474 1474 1473 1472 1471 1471 1470 1469 1468 1468 1467 1466 1465 1464 1463 1462 1461 1460 1459 1458 1457 1457 1456 1455 1454 1453 1452 1451 1449 1448 1448 1446 1445 1444 1443 1442 1441 1440 1439 1439 1438 1438
1491 1489 1488 1486 1484 1483 1481 1479 1478 1476 1475 1475 1475 1475 1474 1474 1474 1475 1475 1476 1476 1477 1477 1476 1476 1475 1474 1473 1473 1472 1471 1470 1470 1469 1468 1468 1467 1466 1465 1464 1463 1462 1461 1460 1459 1458 1457 1456 1455 1454 1453 1453 1451 1450 1449 1448 1447 1446 1445 1443 1443 1442 1441 1440 1439 1438 1437 1437 1436
1489 1487 1485 1483 1482 1480 1478 1476 1475 1474 1473 1473 1473 1472 1472 1473 1473 1474 1474 1475 1475 1475 1475 1475 1475 1474 1473 1472 1472 1471 1470 1469 1469 1468 1467 1466 1465 1465 1464 1463 1462 1462 1460 1459 1458 1457 1456 1455 1454 1453 1452 1451 1450 1449 1448 1447 1446 1444 1443 1442 1441 1440 1439 1438 1437 1436 1436 1435 1434
1487 1485 1483 1481 1479 1477 1475 1473 1472 1472 1472 1471 1470 1470 1471 1472 1472 1473 1473 1474 1474 1474 1474 1474 1473 1473 1472 1471 1471 1470 1469 1468 1468 1467 1466 1465 1464 1463 1463 1462 1462 1461 1459 1458 1457 1455 1454 1453 1453 1452 1451 1450 1449 1448 1447 1445 1444 1443 1441 1440 1439 1438 1437 1436 1436 1435 1434 1433 1433
1486 1483 1481 1479 1477 1474 1472 1471 1470 1469 1469 1468 1469 1469 1470 1471 1471 1472 1472 1473 1473 1473 1473 1473 1473 1472 1471 1470 1470 1469 1468 1468 1467 1466 1465 1464 1463 1463 1462 1461 1460 1459 1458 1456 1455 1454 1453 1452 1451 1450 1449 1448 1447 1446 1445 1444 1443 1441 1440 1438 1438 1436 1436 1435 1434 1433 1433 1433 1432
1484 1482 1479 1477 1474 1472 1470 1469 1468 1468 1467 1468 1468 1469 1470 1470 1471 1471 1472 1472 1472 1472 1472 1472 1472 1471 1470 1470 1469 1468 1467 1466 1465 1465 1464 1463 1462 1461 1461 1460 1459 1458 1457 1455 1454 1453 1452 1451 1450 1449 1448 1447 1446 1445 1443 1442 1441 1439 1438 1437 1436 1435 1434 1433 1433 1432 1432 1432 1431
1482 1479 1477 1474 1473 1471 1469 1468 1467 1467 1468 1469 1469 1469 1469 1469 1470 1470 1471 1471 1471 1471 1471 1471 1471 1470 1470 1469 1468 1467 1466 1465 1464 1463 1463 1462 1461 1460 1459 1458 1458 1457 1455 1454 1453 1452 1450 1449 1448 1447 1446 1445 1444 1443 1442 1441 1439 1438 1436 1435 1434 1433 1433 1432 1432 1431 1431 1430 1429
1479 1477 1474 1473 1471 1468 1467 1467 1467 1468 1468 1469 1469 1469 1469 1469 1469 1470 1470 1471 1471 1471 1471 1471 1470 1470 1469 1468 1467 1466 1465 1464 1463 1463 1462 1461 1460 1459 1458 1457 1457 1456 1454 1453 1451 1450 1449 1448 1446 1445 1444 1443 1442 1441 1440 1439 1437 1436 1435 1434 1433 1432 1431 1431 1430 1429 1429 1428 1428
1477 1474 1472 1470 1468 1467 1466 1467 1468 1469 1469 1470 1469 1469 1469 1469 1469 1470 1470 1470 1470 1470 1470 1470 1469 1469 1468 1467 1466 1465 1464 1463 1462 1461 1460 1459 1458 1458 1457 1456 1455 1455 1453 1452 1450 1448 1447 1446 1445 1443 1443 1441 1440 1439 1438 1437 1436 1434 1433 1432 1431 1430 1429 1428 1428 1427 1426 1426 1425
1474 1472 1469 1468 1467 1466 1466 1467 1469 1470 1470 1470 1469 1468 1468 1469 1469 1470 1470 1470 1470 1470 1469 1469 1468 1468 1467 1466 1465 1464 1463 1462 1461 1460 1459 1458 1457 1456 1455 1454 1454 1453 1452 1451 1449 1447 1446 1444 1443 1442 1441 1439 1438 1438 1437 1435 1434 1433 1432 1430 1429 1428 1427 1426 1425 1424 1424 1423 1423
1473 1469 1468 1467 1466 1467 1468 1469 1470 1470 1469 1468 1468 1468 1469 1469 1469 1469 1470 1470 1469 1469 1468 1468 1468 1467 1466 1465 1464 1463 1462 1461 1460 1459 1458 1457 1456 1455 1454 1453 1452 1451 1450 1449 1448 1447 1445 1443 1441 1440 1439 1438 1437 1436 1435 1433 1432 1431 1430 1429 1428 1426 1425 1424 1423 1423 1422 1421 1421
1471 1468 1467 1467 1468 1469 1470 1470 1470 1469 1468 1468 1468 1469 1469 1469 1469 1469 1469 1469 1469 1468 1468 1467 1466 1466 1465 1464 1463 1462 1461 1460 1459 1458 1456 1455 1454 1453 1452 1451 1450 1449 1448 1448 1446 1445 1444 1442 1440 1438 1437 1436 1435 1434 1433 1432 1431 1429 1428 1427 1426 1425 1424 1423 1422 1421 1420 1419 1419
1471 1469 1469 1469 1470 1471 1471 1470 1469 1468 1468 1469 1469 1469 1469 1469 1469 1469 1468 1468 1468 1468 1467 1466 1465 1465 1464 1463 1462 1461 1460 1459 1458 1456 1455 1454 1453 1452 1451 1450 1449 1448 1447 1446 1444 1443 1442 1441 1439 1437 1436 1434 1433 1433 1431 1430 1429 1428 1427 1425 1424 1423 1422 1421 1420 1419 1418 1417 1417
1471 1470 1470 1471 1471 1471 1470 1469 1468 1468 1469 1469 1469 1469 1469 1469 1468 1468 1468 1467 1467 1467 1466 1465 1464 1464 1463 1462 1461 1460 1458 1457 1456 1455 1454 1453 1452 1451 1450 1449 1447 1446 1445 1444 1443 1442 1441 1439 1438 1436 1434 1433 1432 1431 1430 1429 1428 1426 1425 1424 1423 1422 1421 1419 1418 1418 1417 1415 1415
1472 1472 1471 1470 1470 1469 1469 1469 1469 1469 1469 1469 1469 1469 1468 1468 1468 1467 1467 1467 1466 1466 1465 1464 1463 1463 1462 1461 1460 1458 1457 1456 1455 1454 1453 1452 1451 1450 1448 1448 1446 1445 1444 1443 1442 1440 1439 1438 1436 1434 1433 1431 1430 1429 1428 1428 1426 1425 1424 1423 1422 1421 1419 1418 1417 1416 1415 1414 1413